Regional Weather Roundup
Issued by NWS

Home | Current Version | Previous Version | Text Only | Print | Product List | Glossary On
Versions: 1 2 3 4 5 6 7 8 9 10 11 12 13 14 15 16 17 18 19 20 21 22 23 24 25 26 27 28 29 30 31 32 33 34 35 36 37 38 39 40 41 42 43 44 45 46 47 48 49 50
000
ASUS43 KLSX 210259
RWRMO

WEATHER SUMMARY FOR MISSOURI
NATIONAL WEATHER SERVICE SPRINGFIELD MO
900 PM CST SAT DEC 20 2014

NOTE: "FAIR" INDICATES FEW OR NO CLOUDS BELOW 12,000 FEET WITH NO
       SIGNIFICANT WEATHER AND/OR OBSTRUCTIONS TO VISIBILITY.
       CURRENT SKY AND/OR WEATHER CONDITIONS ARE NOT AVAILABLE FOR
       CHILLICOTHE AND FARMINGTON.

MOZ001>031-035>038-043-044-053-054-210400-
...NORTHERN AND WESTERN MISSOURI...

CITY           SKY/WX    TMP DP  RH WIND       PRES   REMARKS
KANSAS CTY INT CLOUDY    36  34  92 S12       30.12S WCI  28
KANSAS C DTWN  PTCLDY    38  33  82 S7        30.14S
LEE`S SUMMIT   CLEAR     36  32  85 S9        30.14F WCI  29
ST JOSEPH      MOCLDY    40  36  86 S9        30.11S
CHILLICOTHE      N/A     39  35  86 S10       30.17S
KIRKSVILLE     CLOUDY    37  37 100 S10       30.17F FOG     WCI  30

$$
MOZ066>068-077>081-088>096-101>105-210400-
...SOUTHWEST MISSOURI...

CITY           SKY/WX    TMP DP  RH WIND       PRES   REMARKS
SPRINGFIELD    CLOUDY    41  37  86 S6        30.18S
JOPLIN         CLOUDY    42  36  79 SW14      30.19S

$$
MOZ032>034-039>042-045>050-055>058-069>072-210400-
...CENTRAL MISSOURI...

CITY           SKY/WX    TMP DP  RH WIND       PRES   REMARKS
COLUMBIA       CLOUDY    40  36  86 S6        30.20S
JEFFERSON CITY CLOUDY    42  35  76 S7        30.22S
ROLLA          CLOUDY    40  33  76 S10       30.19S
SEDALIA        CLOUDY    41  35  79 S8        30.19F
OSAGE BEACH    CLOUDY    41  34  75 S3        30.20F

$$
MOZ051-052-059>065-210400-
...EAST CENTRAL MISSOURI...

CITY           SKY/WX    TMP DP  RH WIND       PRES   REMARKS
ST LOUIS INTL  CLOUDY    42  33  70 SE9       30.25S
SPIRIT OF STL  CLOUDY    41  34  76 SE3       30.23F
ST CHARLES     CLOUDY    39  35  86 SE6       30.24F

$$
MOZ072>076-082>087-097>100-106>115-210400-
...SOUTH CENTRAL AND SOUTHEAST MISSOURI...

CITY           SKY/WX    TMP DP  RH WIND       PRES   REMARKS
CAPE GIRARDEAU CLOUDY    41  33  73 CALM      30.28S
FARMINGTON     CLOUDY    39  34  81 E5        30.25F
POPLAR BLUFF   CLOUDY    42  34  73 CALM      30.26S
WEST PLAINS    CLOUDY    41  36  82 SE3       30.22S

$$



USA.gov is the U.S. government's official web portal to all federal, state and local government web resources and services.